Weather History for Platteville, WI

Change the Weather History Date:

Tuesday, February 5, 2013

  Actual Average (KDBQ) Record (KDBQ)
Temperature  
Mean Temperature 21 °F 21 °F  
Max Temperature 32 °F 29 °F 60 °F (1946)
Min Temperature 10 °F 13 °F -27 °F (1979)
Degree Days  
Heating Degree Days 44 44  
Month to date heating degree days 223  
Since 1 July heating degree days 4460  
Cooling Degree Days 0 0  
Month to date cooling degree days 0  
Year to date cooling degree days 0  
Moisture  
Dew Point 18 °F    
Average Humidity 82    
Maximum Humidity 93    
Minimum Humidity 69    
Precipitation  
Precipitation 0.00 in 0.04 in 0.94 in (1911)
Month to date precipitation 0.21  
Year to date precipitation 1.38  
Snow  
Snow 0.00 in 0.30 in - ()
Month to date snowfall 1.8  
Since 1 July snowfall 26.4  
Snow Depth -    
Sea Level Pressure  
Sea Level Pressure 29.88 in    
Wind  
Wind Speed 10 mph (WSW)    
Max Wind Speed 17 mph    
Max Gust Speed 22 mph    
Visibility 8 miles    
Events      
T = Trace of Precipitation, MM = Missing Value Source: NWS Daily Summary

Daily Weather History Graph

Daily Weather History Graph

Search for Another Location

Airport:

Trip Planner

Search our weather history database for the weather conditions in past years. The results will help you decide how hot, cold, wet, or windy it might be!

Date:

Astronomy

Feb. 05, 2013 Rise Set
Actual Time 7:11 AM CST 5:20 PM CST
Civil Twilight 6:41 AM CST 5:50 PM CST
Nautical Twilight 6:08 AM CST 6:24 PM CST
Astronomical Twilight 5:35 AM CST 6:57 PM CST
Moon 2:55 AM CST (2/5) 12:35 PM CST (2/5)
Length of Visible Light 11h 08m
Length of Day
10h 09m
Waning Crescent, 26% of the Moon is Illuminated
Feb 5
Waning Crescent
Feb 10
New
Feb 17
First Quarter
Feb 25
Full
Mar 4
Last Quarter

Hourly Weather History & Observations

Time (CST) Temp. Windchill Dew Point Humidity Pressure Visibility Wind Dir Wind Speed Gust Speed Precip Events Conditions
12:15 AM 12.2 °F 0.7 °F 8.6 °F 85% 29.91 in 10.0 mi SSE 8.1 mph - N/A   Clear
12:55 AM 12.2 °F 1.7 °F 8.6 °F 85% 29.90 in 10.0 mi SSE 6.9 mph - N/A   Clear
1:15 AM 12.2 °F -0.2 °F 6.8 °F 79% 29.89 in 10.0 mi South 9.2 mph - N/A   Clear
1:35 AM 10.4 °F -3.3 °F 6.8 °F 85% 29.89 in 10.0 mi South 10.4 mph - N/A   Clear
1:55 AM 10.4 °F -3.3 °F 5.0 °F 79% 29.88 in 10.0 mi South 10.4 mph - N/A   Clear
2:15 AM 10.4 °F -3.3 °F 6.8 °F 85% 29.87 in 10.0 mi South 10.4 mph - N/A   Scattered Clouds
2:35 AM 12.2 °F 0.7 °F 8.6 °F 85% 29.88 in 10.0 mi South 8.1 mph - N/A   Overcast
2:55 AM 12.2 °F 0.7 °F 8.6 °F 85% 29.87 in 10.0 mi SSW 8.1 mph - N/A   Overcast
3:15 AM 14.0 °F 2.0 °F 10.4 °F 86% 29.86 in 10.0 mi South 9.2 mph - N/A   Overcast
3:55 AM 14.0 °F 1.2 °F 10.4 °F 86% 29.83 in 3.0 mi South 10.4 mph - N/A   Overcast
4:15 AM 14.0 °F -0.2 °F 12.2 °F 93% 29.82 in 3.0 mi South 12.7 mph - N/A   Overcast
4:35 AM 14.0 °F -0.2 °F 12.2 °F 93% 29.83 in 3.0 mi South 12.7 mph - N/A   Overcast
4:55 AM 15.8 °F 3.4 °F 12.2 °F 86% 29.83 in 5.0 mi South 10.4 mph - N/A   Overcast
5:15 AM 15.8 °F 2.7 °F 12.2 °F 86% 29.81 in 10.0 mi South 11.5 mph - N/A   Overcast
5:35 AM 15.8 °F 2.7 °F 12.2 °F 86% 29.81 in 10.0 mi South 11.5 mph - N/A   Overcast
5:55 AM 15.8 °F 2.1 °F 12.2 °F 86% 29.79 in 10.0 mi South 12.7 mph - N/A   Overcast
6:15 AM 17.6 °F 4.3 °F 14.0 °F 86% 29.79 in 10.0 mi South 12.7 mph - N/A   Overcast
6:35 AM 17.6 °F 5.7 °F 14.0 °F 86% 29.80 in 10.0 mi South 10.4 mph - N/A   Overcast
6:55 AM 17.6 °F 5.0 °F 14.0 °F 86% 29.79 in 10.0 mi South 11.5 mph - N/A   Overcast
7:15 AM 17.6 °F 7.3 °F 14.0 °F 86% 29.79 in 7.0 mi South 8.1 mph - N/A   Overcast
7:35 AM 17.6 °F 5.7 °F 14.0 °F 86% 29.79 in 7.0 mi South 10.4 mph - N/A   Overcast
7:55 AM 17.6 °F 5.7 °F 14.0 °F 86% 29.78 in 7.0 mi South 10.4 mph - N/A   Overcast
8:15 AM 17.6 °F 6.4 °F 14.0 °F 86% 29.79 in 7.0 mi SSW 9.2 mph - N/A   Overcast
8:35 AM 21.2 °F 8.9 °F 17.6 °F 86% 29.78 in 7.0 mi SSW 12.7 mph - N/A   Overcast
8:55 AM 21.2 °F 9.5 °F 17.6 °F 86% 29.78 in 7.0 mi SSW 11.5 mph - N/A   Overcast
9:15 AM 21.2 °F 10.9 °F 17.6 °F 86% 29.78 in 7.0 mi SSW 9.2 mph - N/A   Overcast
9:35 AM 23.0 °F 11.1 °F 19.4 °F 86% 29.78 in 7.0 mi SSW 12.7 mph - N/A   Overcast
9:55 AM 23.0 °F 11.7 °F 19.4 °F 86% 29.78 in 7.0 mi SW 11.5 mph - N/A   Overcast
10:15 AM 23.0 °F 11.7 °F 19.4 °F 86% 29.78 in 10.0 mi SW 11.5 mph - N/A   Overcast
10:35 AM 24.8 °F 14.6 °F 21.2 °F 86% 29.79 in 1.0 mi SW 10.4 mph - N/A   Overcast
10:55 AM 24.8 °F 14.6 °F 21.2 °F 86% 29.79 in 0.5 mi SW 10.4 mph - N/A   Overcast
11:15 AM 24.8 °F 15.3 °F 21.2 °F 86% 29.79 in 0.5 mi SW 9.2 mph - N/A   Overcast
11:35 AM 26.6 °F 16.8 °F 23.0 °F 86% 29.79 in 1.2 mi WSW 10.4 mph - N/A   Overcast
11:55 AM 26.6 °F 14.3 °F 23.0 °F 86% 29.79 in 5.0 mi West 16.1 mph 20.7 mph N/A   Overcast
12:15 PM 26.6 °F 14.3 °F 23.0 °F 86% 29.78 in 5.0 mi West 16.1 mph - N/A   Overcast
12:35 PM 26.6 °F 15.7 °F 23.0 °F 86% 29.79 in 1.0 mi West 12.7 mph - N/A   Overcast
12:55 PM 28.4 °F 18.5 °F 23.0 °F 80% 29.80 in 5.0 mi West 11.5 mph - N/A   Overcast
1:15 PM 28.4 °F 17.5 °F 23.0 °F 80% 29.80 in 7.0 mi WNW 13.8 mph - N/A   Overcast
1:35 PM 28.4 °F 19.1 °F 24.8 °F 86% 29.80 in 7.0 mi West 10.4 mph - N/A   Overcast
1:55 PM 30.2 °F 21.3 °F 24.8 °F 80% 29.81 in 10.0 mi WNW 10.4 mph 16.1 mph N/A   Overcast
2:15 PM 30.2 °F 22.6 °F 24.8 °F 80% 29.82 in 10.0 mi West 8.1 mph - N/A   Overcast
2:35 PM 30.2 °F 21.9 °F 24.8 °F 80% 29.84 in 10.0 mi WNW 9.2 mph - N/A   Overcast
2:55 PM 30.2 °F 21.9 °F 24.8 °F 80% 29.84 in 10.0 mi West 9.2 mph - N/A   Overcast
3:35 PM 30.2 °F 21.9 °F 26.6 °F 86% 29.87 in 10.0 mi West 9.2 mph - N/A   Overcast
3:55 PM 32.0 °F 23.6 °F 26.6 °F 80% 29.87 in 10.0 mi West 10.4 mph - N/A   Overcast
4:15 PM 32.0 °F 24.2 °F 26.6 °F 80% 29.88 in 10.0 mi WNW 9.2 mph - N/A   Overcast
4:35 PM 32.0 °F 22.5 °F 26.6 °F 80% 29.89 in 10.0 mi NW 12.7 mph 18.4 mph N/A   Overcast
4:55 PM 32.0 °F 24.2 °F 24.8 °F 75% 29.90 in 10.0 mi NW 9.2 mph - N/A   Overcast
5:15 PM 32.0 °F 23.0 °F 24.8 °F 75% 29.92 in 10.0 mi WNW 11.5 mph - N/A   Overcast
5:35 PM 30.2 °F 20.2 °F 23.0 °F 75% 29.93 in 10.0 mi NW 12.7 mph - N/A   Overcast
5:55 PM 30.2 °F 20.2 °F 23.0 °F 75% 29.94 in 10.0 mi NW 12.7 mph - N/A   Overcast
6:15 PM 30.2 °F 18.5 °F 21.2 °F 69% 29.96 in 10.0 mi NW 17.3 mph 21.9 mph N/A   Overcast
6:35 PM 30.2 °F 20.2 °F 21.2 °F 69% 29.96 in 10.0 mi WNW 12.7 mph - N/A   Overcast
6:55 PM 30.2 °F 21.3 °F 23.0 °F 75% 29.97 in 10.0 mi WNW 10.4 mph 19.6 mph N/A   Overcast
7:15 PM 30.2 °F 22.6 °F 23.0 °F 75% 29.98 in 10.0 mi WNW 8.1 mph - N/A   Overcast
8:15 PM 30.2 °F 21.9 °F 21.2 °F 69% 30.00 in 10.0 mi WNW 9.2 mph - N/A   Overcast
8:35 PM 28.4 °F 22.2 °F 21.2 °F 74% 30.00 in 10.0 mi NW 5.8 mph - N/A   Overcast
8:55 PM 28.4 °F 20.4 °F 21.2 °F 74% 30.02 in 10.0 mi WNW 8.1 mph - N/A   Overcast
9:15 PM 28.4 °F 19.1 °F 21.2 °F 74% 30.03 in 10.0 mi NW 10.4 mph - N/A   Overcast
9:35 PM 28.4 °F 19.1 °F 19.4 °F 69% 30.04 in 10.0 mi NW 10.4 mph - N/A   Overcast
9:55 PM 26.6 °F 18.2 °F 19.4 °F 74% 30.04 in 10.0 mi NW 8.1 mph - N/A   Scattered Clouds
10:15 PM 23.0 °F 17.0 °F 17.6 °F 80% 30.05 in 10.0 mi NNW 4.6 mph - N/A   Clear
10:35 PM 24.8 °F 16.1 °F 17.6 °F 74% 30.04 in 10.0 mi NNW 8.1 mph - N/A   Clear
10:55 PM 23.0 °F 18.4 °F 17.6 °F 80% 30.05 in 10.0 mi NW 3.5 mph - N/A   Clear
11:15 PM 19.4 °F 14.3 °F 14.0 °F 80% 30.07 in 10.0 mi WSW 3.5 mph - N/A   Scattered Clouds
11:35 PM 21.2 °F - 17.6 °F 86% 30.07 in 10.0 mi Calm Calm - N/A   Mostly Cloudy
11:55 PM 21.2 °F 16.4 °F 17.6 °F 86% 30.09 in 10.0 mi West 3.5 mph - N/A   Scattered Clouds